This demonstration page uses our WeatherBlox Daily Observations layout. Learn more.

Left ArrowRight Arrow

36.19886, -115.1175

Hourly Observations for October 2, 2022

Temp ( °F °C ) Dew Point ( °F °C ) Humidity (%) Winds ( mph kmh ) Pressure ( in mb ) Visibility ( mi km ) Precip ( " mm )
12:53 am 00:53 Clear 83 28.3 45 7.2 26 26 SSW 6 9 29.82 1010 10 16 0.00 0.00
1:53 am 01:53 Clear 77 25 41 5 28 28 NW 3 6 29.83 1010 10 16 0.00 0.00
2:53 am 02:53 Clear 74 23.3 41 5 30 30 Calm 29.83 1010 10 16 0.00 0.00
3:53 am 03:53 Clear 74 23.3 40 4.4 29 29 NW 3 6 29.83 1010 10 16 0.00 0.00
4:53 am 04:53 Clear 73 22.8 41 5 31 31 WNW 7 11 29.85 1011 10 16 0.00 0.00
5:53 am 05:53 Clear 72 22.2 46 7.8 40 40 NNW 6 9 29.86 1011 10 16 0.00 0.00
6:53 am 06:53 Sunny 71 21.7 47 8.3 42 42 NW 3 6 29.89 1012 10 16 0.00 0.00
7:53 am 07:53 Sunny 75 23.9 49 9.4 40 40 NNW 6 9 29.91 1013 10 16 0.00 0.00
8:53 am 08:53 Sunny 80 26.7 54 12.2 41 41 E 6 9 29.93 1013 10 16 0.00 0.00
9:53 am 09:53 Sunny 83 28.3 55 12.8 38 38 ESE 6 9 29.93 1014 10 16 0.00 0.00
10:53 am 10:53 Sunny 86 30 56 13.3 36 36 ESE 6 9 29.93 1014 10 16 0.00 0.00
11:53 am 11:53 Sunny 88 31.1 55 12.8 33 33 ESE 6 9 29.91 1013 10 16 0.00 0.00
12:53 pm 12:53 Sunny 92 33.3 51 10.6 25 25 E 9 15 29.87 1012 10 16 0.00 0.00
1:53 pm 13:53 Sunny 93 33.9 46 7.8 20 20 VRB 5 7 29.85 1011 10 16 0.00 0.00
2:53 pm 14:53 Sunny 94 34.4 46 7.8 19 19 S 12 19 29.84 1010 10 16 0.00 0.00
3:53 pm 15:53 Sunny 94 34.4 45 7.2 19 19 VRB 5 7 29.83 1010 10 16 0.00 0.00
4:53 pm 16:53 Sunny 94 34.4 44 6.7 18 18 S 9 15 29.82 1010 10 16 0.00 0.00
5:53 pm 17:53 Sunny 93 33.9 45 7.2 19 19 SW 10 17 29.83 1010 10 16 0.00 0.00
6:53 pm 18:53 Clear 91 32.8 44 6.7 20 20 SW 10 17 29.85 1011 10 16 0.00 0.00
7:53 pm 19:53 Clear 88 31.1 43 6.1 21 21 S 8 13 29.86 1011 10 16 0.00 0.00
8:53 pm 20:53 Clear 87 30.6 42 5.6 21 21 SSW 9 15 29.87 1011 10 16 0.00 0.00
9:53 pm 21:53 Clear 84 28.9 43 6.1 24 24 S 7 11 29.87 1012 10 16 0.00 0.00
10:53 pm 22:53 Clear 82 27.8 44 6.7 26 26 Calm 29.88 1012 10 16 0.00 0.00
11:53 pm 23:53 Clear 80 26.7 43 6.1 27 27 WNW 7 11 29.89 1012 10 16 0.00 0.00

Powered by AerisWeather